Weather in Snovskaya

Russia / Lipetsk Oblast     52°15′31″N   38°42′00″E
temp.,
°C
wind,
m/s
gust,
m/s
humid.,
%
clouds,
%
prec.,
mm/h
press.,
hPa
HPBL,
m
12 april, mon
mon1200:00+7ne51263100 0.0 1029374
03:00+6ene51176100 0.0 1028387
06:00+6ene51089100 0.0 1028307
09:00+9ene6983100 0.0 1028380
12:00+16e796135 0.0 1026709
15:00+20e794456 0.0 10251120
18:00+19ese611445 0.0 1024423
21:00+14ese5146213 0.0 1025279
13 april, tue
tue1300:00+12ese4126963 0.0 1025245
03:00+10ese4106970 0.0 1026174
06:00+8ese497262 0.0 1026160
09:00+14se5105330 0.0 1026399
12:00+19se6103650 0.0 10251224
15:00+21se8112763 0.0 10241887
18:00+19se611353 0.0 1023483
21:00+14ese514485 0.0 1024313
14 april, wed
wed1400:00+12ese41256100 0.0 1023253
03:00+10ese4962100 0.0 1023163
06:00+9ese3668100 0.0 1022100
09:00+13se595497 0.0 1021379
12:00+18se61031100 0.0 10201437
15:00+20se682529 0.0 10192129
18:00+18sse3632100 0.0 1018149
21:00+14se333977 0.0 101823
15 april, thu
thu1500:00+12se365695 0.0 101895
03:00+10se3360100 0.0 101833
06:00+9ese3464100 0.0 101752
09:00+14e3552100 0.0 1017273
12:00+19ese453884 0.0 10161084
15:00+20ese5634100 0.0 10142253
18:00+18ese474299 0.0 1013242
21:00+15e234887 0.0 101324
16 april, fri
fri1600:00+13se3857100 0.0 1013156
03:00+13sse4965100 0.1 1013257
06:00+11ese3378100 0.6 101264
09:00+14se356635 0.6 1013460
12:00+17sse4550100 2.1 10131424
15:00+15ene3465100 4.0 1013771
18:00+14ene237185 1.0 1013245
21:00+10ne479190 1.5 1015209